Starlink 11241

operational
NORAD ID: 60936 Int'l Des: 2024-155 Owner: SPXS Country: US Constellation: starlink
LEOCIRCULAR

关于 Starlink 11241

正在加载描述...

实时位置

正在加载3D地球...

即将过境

高度历史

Altitude vs Time

uPlot chart will show altitude changes over time

两行轨道根数

1 60936U 24155N 26037.52110008 -.00004097 00000-0 -29002-4 0 9995
2 60936 53.1594 135.1417 0001337 125.7777 234.3365 15.69682978 83508
Epoch: Feb 6, 2026 • Age: 8 hours

当前状态

高度 359.6 km
速度 7.70 km/s
星下点 21.11°N, 152.23°W
发射日期 Aug 31, 2024
运行时间 1.4 years
类型 internet

技术详情

分类 Payload
质量 960.00 kg
干质量 910.00 kg
总质量 960.00 kg
长度 0.30 m
直径 4.10 m
跨度 29.00 m
形状 Box + pan
制造商 SPXS
平台类型 Starlink V2MD
阶段状态 In Orbit
所有者/国家 SPXS/US

大型星座

Loading constellations...